TimeMDT,TemperatureF,Dew PointF,Humidity,Sea Level PressureIn,VisibilityMPH,Wind Direction,Wind SpeedMPH,Gust SpeedMPH,PrecipitationIn,Events,Conditions,WindDirDegrees,DateUTC
12:15 AM,50.0,32.0,50,30.19,10.0,ESE,13.8,20.7,N/A,,Clear,120,2012-10-27 06:15:00
12:35 AM,50.0,32.0,50,30.19,10.0,ESE,15.0,21.9,N/A,,Clear,120,2012-10-27 06:35:00
12:55 AM,48.2,30.2,50,30.19,10.0,ESE,15.0,-,N/A,,Clear,120,2012-10-27 06:55:00
1:15 AM,46.4,32.0,57,30.19,10.0,ESE,16.1,20.7,N/A,,Clear,120,2012-10-27 07:15:00
1:35 AM,46.4,32.0,57,30.19,10.0,ESE,17.3,23.0,N/A,,Clear,120,2012-10-27 07:35:00
1:55 AM,46.4,30.2,53,30.19,10.0,ESE,13.8,21.9,N/A,,Clear,120,2012-10-27 07:55:00
2:15 AM,46.4,30.2,53,30.19,10.0,ESE,13.8,19.6,N/A,,Clear,120,2012-10-27 08:15:00
2:35 AM,44.6,30.2,57,30.19,10.0,SE,15.0,-,N/A,,Clear,130,2012-10-27 08:35:00
2:55 AM,44.6,30.2,57,30.19,10.0,SE,15.0,19.6,N/A,,Clear,130,2012-10-27 08:55:00
3:15 AM,44.6,30.2,57,30.18,10.0,SE,13.8,18.4,N/A,,Clear,130,2012-10-27 09:15:00
3:35 AM,44.6,30.2,57,30.18,10.0,SE,12.7,18.4,N/A,,Clear,130,2012-10-27 09:35:00
3:55 AM,42.8,28.4,57,30.18,10.0,SSE,11.5,-,N/A,,Clear,150,2012-10-27 09:55:00
4:15 AM,42.8,30.2,61,30.18,10.0,SE,11.5,-,N/A,,Clear,130,2012-10-27 10:15:00
4:35 AM,42.8,30.2,61,30.18,10.0,SE,11.5,-,N/A,,Clear,130,2012-10-27 10:35:00
4:55 AM,44.6,30.2,57,30.18,10.0,SE,10.4,-,N/A,,Clear,130,2012-10-27 10:55:00
5:15 AM,44.6,30.2,57,30.18,10.0,ESE,16.1,21.9,N/A,,Clear,120,2012-10-27 11:15:00
5:55 AM,42.8,28.4,57,30.19,10.0,SE,13.8,-,N/A,,Clear,130,2012-10-27 11:55:00
6:15 AM,42.8,28.4,57,30.19,10.0,ESE,12.7,18.4,N/A,,Clear,120,2012-10-27 12:15:00
6:35 AM,42.8,28.4,57,30.19,10.0,ESE,12.7,-,N/A,,Clear,120,2012-10-27 12:35:00
6:55 AM,42.8,28.4,57,30.19,10.0,SE,10.4,-,N/A,,Clear,130,2012-10-27 12:55:00
7:15 AM,42.8,28.4,57,30.19,10.0,SE,11.5,-,N/A,,Clear,130,2012-10-27 13:15:00
7:35 AM,42.8,28.4,57,30.19,10.0,SSE,6.9,-,N/A,,Clear,150,2012-10-27 13:35:00
8:15 AM,44.6,28.4,53,30.20,10.0,SE,10.4,-,N/A,,Clear,130,2012-10-27 14:15:00
8:35 AM,46.4,30.2,53,30.21,10.0,ESE,16.1,20.7,N/A,,Clear,120,2012-10-27 14:35:00
9:15 AM,50.0,30.2,47,30.21,10.0,ESE,20.7,27.6,N/A,,Clear,120,2012-10-27 15:15:00
9:35 AM,51.8,30.2,44,30.22,10.0,ESE,19.6,23.0,N/A,,Clear,120,2012-10-27 15:35:00
9:55 AM,53.6,30.2,41,30.21,10.0,ESE,18.4,25.3,N/A,,Clear,120,2012-10-27 15:55:00
10:15 AM,53.6,30.2,41,30.21,10.0,SE,18.4,23.0,N/A,,Clear,130,2012-10-27 16:15:00
10:35 AM,55.4,30.2,38,30.21,10.0,SE,17.3,25.3,N/A,,Clear,130,2012-10-27 16:35:00
11:15 AM,59.0,32.0,36,30.21,10.0,ESE,15.0,23.0,N/A,,Clear,110,2012-10-27 17:15:00
11:35 AM,59.0,32.0,36,30.19,10.0,SE,13.8,20.7,N/A,,Clear,130,2012-10-27 17:35:00
11:55 AM,60.8,32.0,34,30.19,10.0,ESE,11.5,21.9,N/A,,Clear,120,2012-10-27 17:55:00
12:15 PM,60.8,32.0,34,30.18,10.0,ESE,12.7,19.6,N/A,,Clear,120,2012-10-27 18:15:00
12:35 PM,60.8,32.0,34,30.16,10.0,ESE,17.3,21.9,N/A,,Clear,110,2012-10-27 18:35:00
12:55 PM,62.6,32.0,32,30.14,10.0,SE,15.0,21.9,N/A,,Clear,130,2012-10-27 18:55:00
1:15 PM,62.6,32.0,32,30.13,10.0,SE,15.0,21.9,N/A,,Clear,130,2012-10-27 19:15:00
1:35 PM,64.4,33.8,32,30.12,10.0,SE,16.1,21.9,N/A,,Clear,130,2012-10-27 19:35:00
1:55 PM,64.4,32.0,30,30.10,10.0,ESE,12.7,19.6,N/A,,Clear,120,2012-10-27 19:55:00
2:15 PM,64.4,32.0,30,30.10,10.0,SE,9.2,18.4,N/A,,Clear,140,2012-10-27 20:15:00
2:35 PM,64.4,32.0,30,30.08,10.0,SE,15.0,20.7,N/A,,Clear,130,2012-10-27 20:35:00
2:55 PM,64.4,32.0,30,30.07,10.0,SE,11.5,17.3,N/A,,Clear,140,2012-10-27 20:55:00
3:15 PM,66.2,32.0,28,30.07,10.0,SE,13.8,17.3,N/A,,Clear,130,2012-10-27 21:15:00
3:35 PM,68.0,32.0,26,30.07,10.0,SE,8.1,-,N/A,,Clear,140,2012-10-27 21:35:00
3:55 PM,68.0,32.0,26,30.07,10.0,SE,10.4,16.1,N/A,,Clear,140,2012-10-27 21:55:00
4:15 PM,68.0,32.0,26,30.06,10.0,SE,12.7,16.1,N/A,,Clear,140,2012-10-27 22:15:00
4:35 PM,68.0,32.0,26,30.06,10.0,SE,9.2,-,N/A,,Clear,140,2012-10-27 22:35:00
4:55 PM,68.0,32.0,26,30.06,10.0,SE,10.4,-,N/A,,Clear,130,2012-10-27 22:55:00
5:15 PM,68.0,32.0,26,30.05,10.0,ESE,6.9,-,N/A,,Clear,120,2012-10-27 23:15:00
5:35 PM,68.0,32.0,26,30.05,10.0,ESE,10.4,-,N/A,,Clear,110,2012-10-27 23:35:00
5:55 PM,66.2,32.0,28,30.05,10.0,ESE,6.9,-,N/A,,Clear,120,2012-10-27 23:55:00
6:15 PM,64.4,32.0,30,30.06,10.0,ESE,5.8,-,N/A,,Clear,120,2012-10-28 00:15:00
6:35 PM,60.8,32.0,34,30.06,10.0,SE,4.6,-,N/A,,Clear,130,2012-10-28 00:35:00
6:55 PM,59.0,32.0,36,30.07,10.0,SE,5.8,-,N/A,,Clear,130,2012-10-28 00:55:00
7:15 PM,55.4,30.2,38,30.08,10.0,SE,4.6,-,N/A,,Clear,140,2012-10-28 01:15:00
7:35 PM,53.6,30.2,41,30.08,10.0,SSE,4.6,-,N/A,,Clear,160,2012-10-28 01:35:00
7:55 PM,53.6,30.2,41,30.10,10.0,SSE,5.8,-,N/A,,Clear,160,2012-10-28 01:55:00
8:15 PM,53.6,30.2,41,30.10,10.0,South,5.8,-,N/A,,Clear,180,2012-10-28 02:15:00
8:35 PM,53.6,30.2,41,30.10,10.0,South,6.9,-,N/A,,Clear,190,2012-10-28 02:35:00
8:55 PM,51.8,30.2,44,30.11,10.0,South,6.9,-,N/A,,Clear,190,2012-10-28 02:55:00
9:15 PM,53.6,30.2,41,30.11,10.0,South,8.1,-,N/A,,Clear,180,2012-10-28 03:15:00
9:35 PM,51.8,30.2,44,30.12,10.0,South,8.1,-,N/A,,Clear,180,2012-10-28 03:35:00
10:15 PM,50.0,30.2,47,30.13,10.0,South,6.9,-,N/A,,Clear,180,2012-10-28 04:15:00
10:35 PM,50.0,30.2,47,30.14,10.0,South,6.9,-,N/A,,Clear,180,2012-10-28 04:35:00
10:55 PM,48.2,30.2,50,30.14,10.0,South,6.9,-,N/A,,Clear,170,2012-10-28 04:55:00
11:15 PM,48.2,30.2,50,30.14,10.0,South,6.9,-,N/A,,Clear,180,2012-10-28 05:15:00
11:35 PM,46.4,30.2,53,30.14,10.0,South,6.9,-,N/A,,Clear,180,2012-10-28 05:35:00
11:55 PM,46.4,30.2,53,30.14,10.0,South,8.1,-,N/A,,Clear,180,2012-10-28 05:55:00